Regional Weather Roundup
Issued by NWS Grand Forks, ND

Home | Current Version | Previous Version | Graphics & Text | Print | Product List | Glossary On
Versions: 1 2 3 4 5 6 7 8 9 10 11 12 13 14 15 16 17 18 19 20 21 22 23 24 25 26 27 28 29 30 31 32 33 34 35 36 37 38 39 40 41 42 43 44 45 46 47 48 49 50
000
ASUS43 KFGF 230710
RWRFGF
PRAIRIE TO PINES  WEATHER ROUNDUP
NATIONAL WEATHER SERVICE EASTERN NORTH DAKOTA/GRAND FORKS ND
100 AM CST MON JAN 23 2017

 **SATELLITE DATA USED TO AUGMENT SKY COVER AT AUTOMATED STATIONS**
 *****  WEATHER ACROSS EASTERN NORTH DAKOTA  *****

CITY           SKY/WX    TMP DP  RH WIND       PRES   REMARKS
GRAND FORKS    CLOUDY    33  28  81 W10       29.77S WCI  25
GRAND FRKS AFB CLOUDY    31  27  84 NW9       29.76F WCI  23
DEVILS LAKE    CLOUDY    29  27  92 W13       29.75F WCI  19
FARGO          CLOUDY    34  30  85 W5        29.79S
WAHPETON ARPT  CLOUDY    32  30  93 W6        29.81S
$$

 ***** WEATHER ACROSS CENTRAL AND WESTERN NORTH DAKOTA  *****

CITY           SKY/WX    TMP DP  RH WIND       PRES   REMARKS
BISMARCK       CLOUDY    31  25  78 W8        29.83S WCI  23
MINOT          CLOUDY    29  25  85 W9        29.76F WCI  20
JAMESTOWN      CLOUDY    32  27  81 NW12      29.79R WCI  23
MINOT AFB      CLOUDY    27  23  86 W12       29.75F WCI  16
GARRISON         N/A     28  22  78 NW12      29.78S WCI  18
WILLISTON      CLOUDY    27  23  85 SW5       29.79F WCI  22
DICKINSON      CLOUDY    25  20  81 NW6       29.77F WCI  18
HETTINGER      CLOUDY    23  22  96 N9        29.80F WCI  13
$$

 *****  OTHER AIRPORT OBSERVATIONS IN OUR AREA  *****

CITY           SKY/WX    TMP DP  RH WIND       PRES   REMARKS
WALHALLA       NOT AVBL
GRAFTON AIRPOR CLOUDY    32  32 100 SW6       29.77F
VALLEY CITY AR CLOUDY    32  32 100 NW8       29.81S WCI  25
CANDO          NOT AVBL
CAVALIER APRT  CLOUDY    32  28  86 W3        29.75S
GWINNER        CLOUDY    34  32  93 W8        29.81F
SHEYENNE NWR     N/A     33  27  77 NW7       29.95S
ROLLA            N/A    N/A N/A N/A MISG        N/A
 ***** THE ABOVE OBSERVATIONS ARE NON NWS ARE NOT QUALITY
       CONTROLLED AND MAY MIS-REPORT RAIN FOR SNOW...
$$

  *****  WEATHER ACROSS NORTHERN MINNESOTA  *****

CITY           SKY/WX    TMP DP  RH WIND       PRES   REMARKS
FLAG ISLAND    LGT RAIN  32  32 100 CALM      29.72S VSB 3/4
WARROAD        LGT SNOW  32  28  86 SW6       29.74S
ROSEAU         DRIZZLE   34  28  80 SW3       29.73F
HALLOCK        CLOUDY    32  30  93 CALM      29.74F
THF RVR FALLS  CLOUDY    31  29  92 SW6       29.76S
BAUDETTE       FOG       33  32  96 CALM      29.72F VSB 1/2
WASKISH        CLOUDY    32  32 100 W7        29.75S FOG
CROOKSTON      CLOUDY    32  30  93 W8        29.78R WCI  25
GREENBUSH NDAW   N/A     32  32 100 SW3         N/A
$$
  *****  WEATHER ACROSS CENTRAL AND WEST MINNESOTA  *****

CITY           SKY/WX    TMP DP  RH WIND       PRES   REMARKS
FOSSTON        CLOUDY    28  28 100 SW6       29.76S FOG     WCI  22
BEMIDJI        LGT SNOW  31  31  99 W3        29.74F
PARK RAPIDS    CLOUDY    32  28  85 W10       29.75S WCI  24
ELBOW LAKE     CLOUDY    31  31 100 NW6       29.80S FOG     WCI  25
WADENA         CLOUDY    30  30 100 W5        29.76S FOG
DETROIT LAKES  CLOUDY    32  30  93 NW6       29.78S
MOORHEAD       CLOUDY    32  28  86 W6        29.81R
FERGUS FALLS   CLOUDY    30  30 100 W6        29.83F FOG     WCI  24
MORRIS MN      CLOUDY    32  30  93 NW5       29.81R FOG
STAPLES        CLOUDY    30  30 100 W5        29.77R FOG
$$
  *****  WEATHER ELSEWHERE ACROSS MINNESOTA  *****

CITY           SKY/WX    TMP DP  RH WIND       PRES   REMARKS
DULUTH         CLOUDY    35  34  96 NW5       29.71S
INTRNTL FALLS  FOG       34  33  96 W3        29.72S VSB 1
ELY            FOG       32  32 100 CALM      29.71S VSB 1
CLOQUET        CLOUDY    36  34  93 W3        29.72F FOG
WHEATON        CLOUDY    37  37 100 W7        29.83S
BRAINERD       CLOUDY    32  32 100 W6        29.76S FOG
HIBBING        CLOUDY    33  33 100 NW6       29.72S FOG
ALEXANDRIA     CLOUDY    30  29  96 NW8       29.79R WCI  22
SAINT CLOUD    CLOUDY    33  32  96 NW10      29.77S FOG     WCI  25
MINNEAPOLIS    DRIZZLE   34  32  92 W5        29.79R FOG
$$

  *****  WEATHER ACROSS SOUTH DAKOTA  *****

CITY           SKY/WX    TMP DP  RH WIND       PRES   REMARKS
SIOUX FALLS    CLOUDY    31  29  92 W8        29.86S WCI  23
BROOKINGS      CLOUDY    31  28  89 NW9       29.83S WCI  23
WATERTOWN      CLOUDY    30  28  92 NW9       29.82R WCI  22
HURON          CLOUDY    30  27  88 W10       29.88S WCI  21
SISSETON         N/A     34  31  88 N15       29.81S WCI  24
ABERDEEN       CLOUDY    31  25  78 NW8       29.86S WCI  23
MITCHELL       CLOUDY    31  27  85 NW13      29.91S WCI  21
PIERRE         CLOUDY    26  23  88 W5        29.86F WCI  20
MOBRIDGE       CLOUDY    30  24  78 W5        29.82F
RAPID CITY     FAIR      20  18  92 CALM      29.76F
$$

  *****  SOME WEATHER IN NEARBY STATES *****

CITY           SKY/WX    TMP DP  RH WIND       PRES   REMARKS
GLASGOW MT     CLOUDY    28  24  85 S6        29.77F WCI  22
GREAT FALLS MT LGT SNOW  24  22  91 NE5       29.69F FOG     WCI  18
CHEYENNE WY    CLOUDY    29  13  51 SW12      29.76F WCI  19
SCOTTSBLUFF NE FAIR      28  21  75 CALM      29.79F
OMAHA NE       CLOUDY    31  26  82 NW16      29.91R WCI  20
DES MOINES IA  DRIZZLE   34  33  96 NW9       29.87S FOG
DAVENPORT IA   CLOUDY    35  34  96 NW6       29.77F FOG
CHICAGO IL     CLOUDY    38  37  97 N9        29.69S FOG
EAU CLAIRE WI  FOG       34  34 100 SW3       29.76R VSB 1/4
LA CROSSE WI   CLOUDY    38  35  89 S3        29.79R FOG
$$

  *****  SOME NATIONAL WEATHER *****

CITY           SKY/WX    TMP DP  RH WIND       PRES   REMARKS
LA GUARDIA NY  CLOUDY    44  39  82 E23       29.84R
RALEIGH NC     CLOUDY    52  51  97 E13       29.32F FOG
ATLANTA GA     LGT RAIN  49  47  93 SW9       29.22F
NEW ORLEANS LA CLOUDY    58  50  75 NW21G28   29.66R
OKLAHOMA CITY  FAIR      39  29  67 N6        29.97R
ALBUQUERQUE NM CLOUDY    39  29  67 CALM      30.09S
SALT LAKE CITY CLOUDY    38  31  76 S18       29.66F
LOS ANGELES CA LGT RAIN  57  56  96 SW14G25   29.91F FOG
BOISE ID       FAIR      31  27  85 CALM      29.62F
SEATTLE WA     MOCLDY    41  32  70 E6        29.60R
$$

*** WEATHER ACROSS MANITOBA...SASKATCHEWAN AND ONTARIO ***
                ***ONTARIO***

CITY           SKY/WX    TMP DP  RH WIND       PRES   REMARKS
GERALDTON      SNOW      32  32 100 NE3       29.70F VSB 1/2
THUNDER BAY    CLOUDY    32  32 100 SW3       29.72R
SIOUX LOOKOUT  CLOUDY    32  30  93 VRB2      29.72S
TORONTO        CLOUDY    36  32  87 E8        29.77S
BIG TROUT LK   CLOUDY    27  25  93 SE6       29.82F WCI  20
PICKLE LAKE    NOT AVBL
DRYDEN         SNOW      32  32 100 CALM      29.71R VSB 3/8
KENORA         DRZL/FOG  32  32 100 SW3       29.71S VSB 1/4
$$
                *** MANITOBA***

CITY           SKY/WX    TMP DP  RH WIND       PRES   REMARKS
BRANDON        CLOUDY    28  25  86 W13       29.70F WCI  18
DAUPHIN        FLURRIES  30  28  93 W12       29.68S WCI  21
ISLAND LAKE    FLURRIES  30  30 100 E2        29.76S
PILOT MOUND      N/A     28  25  86 W5          N/A  WCI  23
THE PAS        FLURRIES  28  27  93 NE8       29.76S WCI  20
THOMPSON       FLURRIES  21  19  93 NE10      29.85F WCI  10
WINNIPEG       CLOUDY    32  28  86 SW6       29.72F
LYNN LAKE      FLURRIES  12  10  92 NE10      29.92S WCI  -1
CHURCHILL      LGT SNOW  18  16  93 NE16G23   30.02S FOG     WCI   3
GILLAM         LGT SNOW  23  21  93 NE10      29.87F WCI  12
$$
                ***SASKATCHEWAN***

CITY           SKY/WX    TMP DP  RH WIND       PRES   REMARKS
ESTEVAN        CLOUDY    23  21  93 W10       29.76S WCI  12
KINDERSLEY     FLURRIES  16  12  86 N10       29.80S WCI   3
LLOYDMINSTER   FLURRIES  14  12  92 N6        29.87R WCI   5
PRINCE ALBERT  FLURRIES  19  16  86 N10       29.79S WCI   8
REGINA         CLOUDY    19  16  86 NW14      29.76F WCI   6
YORKTON        FLURRIES  23  21  93 W9        29.70S WCI  13
N. BATTLEFORD  FLURRIES  12  12 100 NW6       29.87S WCI   3
LA RONGE       LGT SNOW  16  12  86 N9        29.89S WCI   4
SASKATOON      FLURRIES  16  12  86 NW9       29.83S WCI   4
SWIFT CURRENT  CLOUDY    18  16  93 NW9       29.76R FOG     WCI   6
$$
NOTE: THESE ARE AUTOMATED STATIONS WITH LIMITED QUALITY CONTROL
      "FAIR" INDICATES FEW OR NO CLOUDS BELOW 12,000 FEET WITH NO
      SIGNIFICANT WEATHER AND/OR OBSTRUCTIONS TO VISIBILITY.
      SKY/WX - SKY CONDITION AND SIGNIFICANT WEATHER.
      TMP - AIR TEMPERATURE.    DP   - DEWPOINT TEMPERATURE.
      RH  - RELATIVE HUMIDITY.  PRES - PRESSURE.
      HX  - HEAT INDEX.         WCI  - WIND CHILL INDEX.
$




USA.gov is the U.S. government's official web portal to all federal, state and local government web resources and services.